English version Home page |
Updated on October 3, 2020 |
プロフィール
|
軌道要素Epoch 2013 May 28.0 TT = JDT 2456440.5 T 2013 June 5.91636 TT MPC q 1.9131998 (2000.0) P Q n 0.12987764 Peri. 152.29349 +0.34438007 -0.89408450 a 3.8617113 Node 276.36168 +0.79925119 +0.43924287 e 0.5045720 Incl. 16.74768 +0.49254431 -0.08762764 P 7.59 From 160 observations 2005 Sept. 15-2013 Jan. 18, mean residual 0".6.
|
光度変化m1 = 10.5 + 5 logΔ + 20.0 log r(t - 50)
|
軌道要素はM.P.E.C. 2013-B18に掲載されたものです。
|